Home > Weather > Annapolis County > Past weeks

Flag for Canada Past Weather in Annapolis County, Nova Scotia, Canada — Yesterday and Last 2 Weeks

Now
62 °F

Mild.


Feels Like: 62 °F
Forecast: 58 / 74 °F
Wind: 6 mph from Southwest

Location: Kejimkujik 1

Current Time: Jun 28, 2016 at 8:32:07 AM

Latest Report: Jun 28, 2016 at 8:00 AM


Visibility: N/A

Pressure: 30.10 "Hg

Humidity: 84%

Dew Point: 58 °F

Location of Annapolis CountyLocation

Past Weather in Annapolis County — Graph

°F

Annapolis County Temperature Yesterday

Maximum temperature yesterday: 82 °F (at 3:00 PM)
Minimum temperature yesterday: 51 °F (at 5:00 AM)
Average temperature yesterday: 66 °F

High & Low Weather Summary for the Past Weeks

 TemperatureHumidityPressure
High82 °F (Jun 26, 4:00 PM)100% (Jun 15, 6:00 AM)30.32 "Hg (Jun 15, 6:00 AM)
Low39 °F (Jun 18, 6:00 AM)20% (Jun 19, 3:00 PM)29.38 "Hg (Jun 13, 3:00 PM)
Average60 °F64%29.94 "Hg
* Reported Jun 13 7:00 AM — Jun 28 7:00 AM, Annapolis County, Weather by CustomWeather, © 2016

Note: Actual official high and low records may vary slightly from our data, if they occured in-between our weather recording intervals... More about our weather records

Advertising

Annapolis County Weather History for the Previous 24 Hours

Scroll right to see more
 ConditionsComfort  
Time TempWeatherWind HumidityBarometerVisibility
7:00 AM
Tue, Jun 28
58 °FCool.2 mph94%30.10 "HgN/A
6:00 AM57 °FCool.3 mph95%30.09 "HgN/A
5:00 AM55 °FCool.3 mph94%30.09 "HgN/A
4:00 AM56 °FCool.3 mph93%30.10 "HgN/A
3:00 AM58 °FCool.7 mph92%30.10 "HgN/A
2:00 AM57 °FCool.6 mph90%30.10 "HgN/A
1:00 AM58 °FCool.6 mph81%30.10 "HgN/A
12:00 AM60 °FCool.7 mph84%30.11 "HgN/A
11:00 PM
Mon, Jun 27
61 °FCool.7 mph84%30.12 "HgN/A
10:00 PM63 °FMild.7 mph73%30.12 "HgN/A
9:00 PM66 °FMild.10 mph50%30.12 "HgN/A
8:00 PM69 °FMild.9 mph41%30.12 "HgN/A
7:00 PM73 °FMild.10 mph32%30.10 "HgN/A
6:00 PM76 °FMild.12 mph39%30.09 "HgN/A
5:00 PM79 °FPleasantly warm.10 mph37%30.09 "HgN/A
4:00 PM80 °FPleasantly warm.13 mph35%30.09 "HgN/A
3:00 PM82 °FPleasantly warm.10 mph35%30.08 "HgN/A
2:00 PM81 °FPleasantly warm.9 mph32%30.09 "HgN/A
1:00 PM80 °FPleasantly warm.9 mph32%30.09 "HgN/A
12:00 PM78 °FPleasantly warm.8 mph34%30.11 "HgN/A
11:00 AM76 °FMild.8 mph43%30.11 "HgN/A
10:00 AM72 °FMild.6 mph45%30.12 "HgN/A
9:00 AM66 °FMild.3 mph67%30.12 "HgN/A
8:00 AM59 °FCool.3 mph76%30.12 "HgN/A
Weather by CustomWeather, © 2016

See weather overviewHow to use our weather pages